This is the latest recevied weather packets stored in our database for station/object KC3ROS. If no packets are shown the sender has not sent any weather packets the latest 10 day(s).
| Time | Temp. | Humidity | Pressure | Rain* | Wind** | Luminosity | Snow |
|---|---|---|---|---|---|---|---|
| 1778195545 | 12.78° C | 45% | 1010 hPa | 0 mm | - | 47 W/m² | - |
| 1778195241 | 13.33° C | 44% | 1010 hPa | 0 mm | - | 53 W/m² | - |
| 1778194939 | 13.89° C | 44% | 1010.1 hPa | 0 mm | - | 60 W/m² | - |
| 1778194638 | 13.89° C | 43% | 1009.8 hPa | 0 mm | - | 92 W/m² | - |
| 1778194335 | 12.78° C | 44% | 1009.8 hPa | 0 mm | - | 91 W/m² | - |
| 1778194030 | 13.33° C | 43% | 1009.9 hPa | 0 mm | - | 62 W/m² | - |
| 1778193727 | 13.33° C | 42% | 1009.7 hPa | 0 mm | - | 64 W/m² | - |
| 1778193423 | 13.89° C | 42% | 1009.7 hPa | 0 mm | - | 69 W/m² | - |
| 1778193121 | 13.89° C | 44% | 1009.6 hPa | 0 mm | - | 158 W/m² | - |
| 1778192817 | 13.33° C | 43% | 1009.6 hPa | 0 mm | - | 63 W/m² | - |
| 1778192514 | 13.89° C | 43% | 1009.6 hPa | 0 mm | - | 84 W/m² | - |
| 1778192210 | 13.89° C | 44% | 1009.4 hPa | 0 mm | - | 99 W/m² | - |
| 1778191906 | 14.44° C | 40% | 1009.4 hPa | 0 mm | - | 62 W/m² | - |
| 1778191604 | 15.56° C | 41% | 1009.2 hPa | 0 mm | - | 223 W/m² | - |
| 1778191302 | 15° C | 40% | 1009 hPa | 0 mm | - | 247 W/m² | - |
| 1778190997 | 13.89° C | 40% | 1009.4 hPa | 0 mm | - | 283 W/m² | - |
| 1778190695 | 14.44° C | 43% | 1009.2 hPa | 0 mm | - | 93 W/m² | - |
| 1778190392 | 15° C | 42% | 1009.1 hPa | 0 mm | - | 90 W/m² | - |
| 1778190089 | 15° C | 39% | 1009.1 hPa | 0 mm | - | 332 W/m² | - |
| 1778189785 | 15° C | 41% | 1008.9 hPa | 0 mm | - | 354 W/m² | - |
| 1778189482 | 14.44° C | 43% | 1008.9 hPa | 0 mm | - | 262 W/m² | - |
| 1778189178 | 15° C | 41% | 1009 hPa | 0 mm | - | 104 W/m² | - |
| 1778188875 | 15° C | 42% | 1009 hPa | 0 mm | - | 405 W/m² | - |
| 1778188572 | 13.33° C | 45% | 1009 hPa | 0 mm | - | 448 W/m² | - |
| 1778188267 | 13.89° C | 41% | 1009 hPa | 0 mm | - | 85 W/m² | - |
* Rain latest hour (hover to see other rain measurements)
** Current wind speed in m/s (hover to see current wind gust speed)